• Processing (Info)

  • MPEC 2011-O36 : 2011 OV4

    The following Minor Planet Electronic Circular may be linked-to from your own Web pages, but must not otherwise be redistributed electronically.

    A form allowing access to any MPEC is at the bottom of this page.


    Read MPEC 2011-O35 Read MPEC 2011-O37


    M.P.E.C. 2011-O36                                Issued 2011 July 27, 16:25 UT
    
         The Minor Planet Electronic Circulars contain information on unusual
             minor planets and routine data on comets.  They are published
       on behalf of Commission 20 of the International Astronomical Union by the
              Minor Planet Center, Smithsonian Astrophysical Observatory,
                              Cambridge, MA 02138, U.S.A.
    
                 Prepared using the Tamkin Foundation Computer Network
    
                                  MPC@CFA.HARVARD.EDU
                URL https://www.minorplanetcenter.net/    ISSN 1523-6714
    
                                       2011 OV4
    
    Observations:
         K11O04V* C2011 07 25.01744 22 17 44.62 -09 32 02.6          17.5 V EO036J75
         K11O04V  C2011 07 25.02766 22 17 45.12 -09 31 43.8          17.3 V EO036J75
         K11O04V  C2011 07 25.03790 22 17 45.59 -09 31 25.4          17.5 V EO036J75
         K11O04V KC2011 07 25.12654 22 17 49.75 -09 28 43.3          17.3 RcEO036I89
         K11O04V KC2011 07 25.12902 22 17 49.86 -09 28 38.7          17.4 RcEO036I89
         K11O04V KC2011 07 25.13149 22 17 49.97 -09 28 34.1          17.4 RcEO036I89
         K11O04V |C2011 07 25.22018 22 17 55.75 -09 25 25.1          18.2 VoEO036807
         K11O04V |C2011 07 25.22206 22 17 55.83 -09 25 21.7          18.2 VoEO036807
         K11O04V |C2011 07 25.22393 22 17 55.92 -09 25 18.2          18.2 VoEO036807
         K11O04V |C2011 07 25.22581 22 17 56.01 -09 25 14.9          18.2 VoEO036807
         K11O04V |C2011 07 25.22768 22 17 56.10 -09 25 11.5          18.2 VoEO036807
         K11O04V $C2011 07 25.45941 22 18 08.79 -09 18 29.5          17.7 RoEO036F65
         K11O04V $C2011 07 25.46016 22 18 08.83 -09 18 28.1          17.8 RoEO036F65
         K11O04V $C2011 07 25.46088 22 18 08.85 -09 18 26.9          17.7 RoEO036F65
         K11O04V $C2011 07 25.46161 22 18 08.89 -09 18 25.5          17.8 RoEO036F65
         K11O04V $C2011 07 25.46238 22 18 08.92 -09 18 24.1          17.8 RoEO036F65
         K11O04V $C2011 07 25.46307 22 18 08.95 -09 18 22.8          17.8 RoEO036F65
         K11O04V $C2011 07 25.46380 22 18 08.98 -09 18 21.5          17.8 RoEO036F65
         K11O04V $C2011 07 25.46451 22 18 09.01 -09 18 20.3          17.7 RoEO036F65
         K11O04V $C2011 07 25.46526 22 18 09.05 -09 18 18.9          17.7 RoEO036F65
         K11O04V $C2011 07 25.46597 22 18 09.08 -09 18 17.6          17.7 RoEO036F65
         K11O04V $C2011 07 25.46677 22 18 09.12 -09 18 16.1          17.7 RoEO036F65
         K11O04V $C2011 07 25.46748 22 18 09.15 -09 18 14.8          17.8 RoEO036F65
         K11O04V $C2011 07 25.46823 22 18 09.18 -09 18 13.5          17.7 RoEO036F65
         K11O04V $C2011 07 25.46893 22 18 09.21 -09 18 12.2          17.8 RoEO036F65
         K11O04V $C2011 07 25.46967 22 18 09.24 -09 18 10.8          17.7 RoEO036F65
         K11O04V $C2011 07 25.47046 22 18 09.28 -09 18 09.4          17.8 RoEO036F65
         K11O04V $C2011 07 25.47118 22 18 09.31 -09 18 08.1          17.7 RoEO036F65
         K11O04V  C2011 07 25.61809 22 18 17.33 -09 13 11.7          18.0 VoEO036E23
         K11O04V  C2011 07 25.62407 22 18 17.54 -09 13 01.7          18.3 VoEO036E23
         K11O04V  C2011 07 25.63086 22 18 17.82 -09 12 49.0          18.7 VoEO036E23
         K11O04V  C2011 07 25.63764 22 18 18.16 -09 12 38.8          18.8 VoEO036E23
         K11O04V  C2011 07 25.69100422 18 20.51 -09 11 03.1          17.1 RoEO036E10
         K11O04V  C2011 07 25.69176522 18 20.54 -09 11 01.8          17.1 RoEO036E10
         K11O04V  C2011 07 25.69253922 18 20.57 -09 11 00.3          17.1 RoEO036E10
         K11O04V  C2011 07 25.69329122 18 20.61 -09 10 58.9          17.1 RoEO036E10
         K11O04V  C2011 07 25.69405322 18 20.64 -09 10 57.5          17.1 RoEO036E10
         K11O04V  C2011 07 25.69481022 18 20.68 -09 10 56.1          17.1 RoEO036E10
         K11O04V |C2011 07 26.18402 22 18 47.84 -08 55 55.9          18.4 VoEO036807
         K11O04V |C2011 07 26.18786 22 18 48.02 -08 55 48.9          18.2 VoEO036807
         K11O04V |C2011 07 26.19171 22 18 48.19 -08 55 41.8          18.3 VoEO036807
         K11O04V |C2011 07 26.19600 22 18 48.39 -08 55 34.0          18.4 VoEO036807
         K11O04V  C2011 07 26.60498 22 19 09.58 -08 42 52.9          17.7 VoEO036E23
         K11O04V  C2011 07 26.61234 22 19 09.94 -08 42 38.4          18.3 VoEO036E23
         K11O04V  C2011 07 26.61964 22 19 10.22 -08 42 26.1          18.6 VoEO036E23
         K11O04V |C2011 07 27.25458 22 19 42.58 -08 22 46.5          18.1 VoEO036807
         K11O04V |C2011 07 27.25925 22 19 42.78 -08 22 37.8          18.2 VoEO036807
         K11O04V |C2011 07 27.26323 22 19 42.94 -08 22 30.4          18.3 VoEO036807
         K11O04V |C2011 07 27.26699 22 19 43.09 -08 22 23.3          18.2 VoEO036807
         K11O04V KC2011 07 27.27021222 19 43.61 -08 22 46.3          17.6 VrEO036H21
         K11O04V KC2011 07 27.27639422 19 43.87 -08 22 34.8          17.5 VrEO036H21
         K11O04V KC2011 07 27.28709022 19 44.33 -08 22 14.8          17.5 VrEO036H21
    
    Observer details:
    807 Cerro Tololo.  Observers R. Holmes, T. Linder, V. Hoette.  Measurers
        R. Holmes, T. Linder.  0.41-m f/11 Ritchey-Chretien + CCD.
    E10 Siding Spring-Faulkes Telescope South.  Observer T. Lister.  2.0-m f/10
        Ritchey-Chretien + CCD.
    E23 Arcadia.  Observer A. Hidas.  0.35-m Schmidt-Cassegrain + CCD.
    F65 Haleakala-Faulkes Telescope North.  Observers N. Howes, G. Sostero,
        E. Guido.  2.0-m f/10.0 Ritchey-Chretien + CCD.
    H21 Astronomical Research Observatory, Westfield.  Observer R. Holmes.
        Measurers S. Foglia, T. Vorobjov.  0.61-m f/4.0 astrograph + CCD.
    I89 RAS Observatory, Nerpio.  Observer H. Sato.  0.43-m f/6.8 reflector + CCD.
    J75 OAM Observatory, La Sagra.  Observers S. Sanchez, J. Nomen, R. Stoss,
        M. Hurtado, J. A. Jaume, W. K. Y. Yeung, P. Rios.  0.45-m f/2.8 reflector
        + CCD.
    
    Orbital elements:
    2011 OV4                                                 Earth MOID = 0.2786 AU
    Epoch 2011 Aug. 27.0 TT = JDT 2455800.5                 MPC
    M 359.82010              (2000.0)            P               Q
    n   0.30224360     Peri.   28.56930     +0.91002724     +0.40127288
    a   2.1990308      Node   307.39630     -0.40089163     +0.78795811
    e   0.4170729      Incl.    7.52711     -0.10552880     +0.46701402
    P   3.26           H   18.6           G   0.15           U   8
    Residuals in seconds of arc
    110725 J75  0.3-  0.6-    110725 F65  0.2-  0.0     110725 E10  0.2-  0.0
    110725 J75  0.1-  0.3-    110725 F65  0.1-  0.0     110725 E10  0.2-  0.0
    110725 J75  0.3-  0.5-    110725 F65  0.1-  0.0     110726 807  0.0   0.7-
    110725 I89  0.2+  0.4+    110725 F65  0.0   0.1+    110726 807  0.1+  0.7-
    110725 I89  0.2+  0.5+    110725 F65  0.1-  0.1+    110726 807  0.1+  0.7-
    110725 I89  0.1+  0.6+    110725 F65  0.1-  0.0     110726 807  0.2+  0.7-
    110725 807  0.3+  0.1-    110725 F65  0.1-  0.0     110726 E23 (0.4+  2.1+)
    110725 807  0.2+  0.1-    110725 F65  0.2-  0.1+    110726 E23 (1.0+  3.0+)
    110725 807  0.3+  0.0     110725 F65  0.1-  0.0     110726 E23  0.4+  1.8+
    110725 807  0.3+  0.2-    110725 F65  0.1-  0.0     110727 807  0.1-  0.1+
    110725 807  0.4+  0.2-    110725 E23 (1.9+  4.0+)   110727 807  0.0   0.1+
    110725 F65  0.1-  0.1+    110725 E23 (1.0+  3.1+)   110727 807  0.0   0.0
    110725 F65  0.0   0.1+    110725 E23 (0.6+  3.4+)   110727 807  0.1-  0.1+
    110725 F65  0.1-  0.0     110725 E23  1.1+  1.2+    110727 H21  0.0   0.2-
    110725 F65  0.0   0.1+    110725 E10  0.2-  0.0     110727 H21  0.1-  0.2-
    110725 F65  0.1-  0.1+    110725 E10  0.2-  0.1-    110727 H21  0.0   0.1-
    110725 F65  0.1-  0.1+    110725 E10  0.3-  0.0
    110725 F65  0.1-  0.1+    110725 E10  0.2-  0.0
    
    Ephemeris:
    2011 OV4                 a,e,i = 2.20, 0.42, 8                   q = 1.2819
    Date    TT    R. A. (2000) Decl.     Delta      r     Elong.  Phase     V
    2011 06 27    21 40 34.5 -20 51 18   0.5017  1.4119   134.0    31.2    19.2
    ...
    2011 07 12    22 03 06.2 -15 30 46   0.4065  1.3591   141.7    27.6    18.5
    ...
    2011 07 20    22 12 42.6 -11 58 52   0.3664  1.3357   146.0    25.2    18.2
    ...
    2011 07 26    22 18 37.2 -09 01 46   0.3413  1.3207   149.3    23.1    18.0
    2011 07 27    22 19 29.3 -08 30 53   0.3375  1.3184   149.8    22.8    17.9
    2011 07 28    22 20 19.5 -07 59 38   0.3339  1.3162   150.4    22.4    17.9
    ...
    2011 08 03    22 24 38.3 -04 45 44   0.3147  1.3042   153.6    20.2    17.7
    ...
    2011 08 11    22 28 38.6 -00 16 25   0.2962  1.2921   157.4    17.5    17.4
    ...
    2011 08 26    22 31 57.7 +07 46 40   0.2831  1.2820   161.2    14.7    17.2
    
    A. U. Tomatic                (C) Copyright 2011 MPC           M.P.E.C. 2011-O36
    

    Read MPEC 2011-O35 Read MPEC 2011-O37


    MPEC number:

    Enter an MPEC number in one of the following forms:

    • 1997-B01 (the full form)
    • J97B01 (the packed version of the full form)
    • B01 (the abbreviated form)